Cherry Point, NC

3:41 AM EST on December 06, 2019 (GMT -0500)
Cherry Point Marine Corps Air Station

Weather History for KNKT - July, 2019

Change the Weather History Date:

Monday, July 22, 2019

  Actual Average Record
Temperature  
Mean Temperature 86 °F -  
Max Temperature 95 °F 84 °F 96 °F (2011)
Min Temperature 78 °F 69 °F 66 °F (2007)
Cooling Degree Days 22    
Growing Degree Days 36 (Base 50)    
Moisture  
Dew Point 74 °F    
Average Humidity 69    
Maximum Humidity 84    
Minimum Humidity 49    
Precipitation  
Precipitation 0.00 in - - ()
Sea Level Pressure  
Sea Level Pressure 29.98 in    
Wind  
Wind Speed 11 mph (SSW)    
Max Wind Speed 21 mph    
Max Gust Speed 32 mph    
Visibility 10 miles    
Events      
Averages and records for this station are not official NWS values.
T = Trace of Precipitation, MM = Missing Value Source: NWS Daily Summary

Daily Weather History Graph

Daily Weather History Graph

Search for Another Location

Airport or City:

Astronomy

Jul. 22, 2019 Rise Set
Actual Time 6:09 AM EDT 8:17 PM EDT
Civil Twilight 5:41 AM EDT 8:46 PM EDT
Nautical Twilight 5:06 AM EDT 9:20 PM EDT
Astronomical Twilight 4:28 AM EDT 9:58 PM EDT
Moon 11:49 PM EDT (7/22) 11:13 AM EDT (7/22)
Length of Visible Light 15h 05m
Length of Day
14h 08m
Waning Gibbous, 72% of the Moon is Illuminated
Jul 22
Waning Gibbous
Jul 24
Last Quarter
Jul 31
New
Aug 7
First Quarter
Aug 15
Full

Hourly Weather History & Observations

Time (EDT) Temp. Heat Index Dew Point Humidity Pressure Visibility Wind Dir Wind Speed Gust Speed Precip Events Conditions
12:54 AM 82.0 °F 89.4 °F 75.9 °F 82% 29.99 in 10.0 mi SW 11.5 mph - N/A   Clear
1:54 AM 81.0 °F 86.7 °F 75.0 °F 82% 29.99 in 10.0 mi SW 9.2 mph - N/A   Clear
2:34 AM 81.0 °F 86.7 °F 75.0 °F 82% 29.99 in 10.0 mi SW 8.1 mph - N/A   Partly Cloudy
2:54 AM 79.0 °F - 73.9 °F 84% 29.98 in 10.0 mi SW 8.1 mph - N/A   Clear
3:54 AM 79.0 °F - 73.9 °F 84% 29.99 in 10.0 mi SW 6.9 mph - N/A   Clear
4:54 AM 78.1 °F - 73.0 °F 84% 29.99 in 10.0 mi SW 6.9 mph - N/A   Clear
5:54 AM 78.1 °F - 72.0 °F 81% 29.99 in 10.0 mi SW 6.9 mph - N/A   Clear
6:54 AM 78.1 °F - 73.0 °F 84% 30.00 in 10.0 mi SW 6.9 mph - N/A   Clear
7:54 AM 82.0 °F 87.9 °F 73.9 °F 76% 30.01 in 10.0 mi SW 10.4 mph - N/A   Clear
8:54 AM 86.0 °F 93.8 °F 73.9 °F 67% 30.01 in 10.0 mi WSW 10.4 mph - N/A   Clear
9:54 AM 88.0 °F 96.5 °F 73.9 °F 63% 30.01 in 10.0 mi SSW 12.7 mph - N/A   Clear
10:54 AM 91.9 °F 101.3 °F 73.9 °F 55% 30.01 in 10.0 mi SSW 11.5 mph - N/A   Clear
11:54 AM 91.9 °F 103.9 °F 75.9 °F 59% 30.00 in 10.0 mi SSW 13.8 mph 19.6 mph N/A   Partly Cloudy
12:54 PM 93.9 °F 106.9 °F 75.9 °F 56% 29.99 in 10.0 mi South 15.0 mph 20.7 mph N/A   Clear
1:54 PM 95.0 °F 106.7 °F 75.0 °F 52% 29.97 in 10.0 mi SSW 12.7 mph 21.9 mph N/A   Clear
2:54 PM 93.9 °F 102.1 °F 72.0 °F 49% 29.96 in 10.0 mi SSW 20.7 mph 27.6 mph N/A   Clear
3:54 PM 93.0 °F 100.1 °F 71.1 °F 49% 29.94 in 10.0 mi SSW 20.7 mph 31.1 mph N/A   Clear
4:54 PM 91.9 °F 98.4 °F 71.1 °F 50% 29.93 in 10.0 mi SSW 15.0 mph 32.2 mph N/A   Clear
5:54 PM 89.1 °F 94.1 °F 70.0 °F 53% 29.93 in 10.0 mi SSW 16.1 mph 29.9 mph N/A   Clear
6:54 PM 87.1 °F 94.5 °F 73.0 °F 63% 29.93 in 10.0 mi SSW 19.6 mph 27.6 mph N/A   Clear
7:54 PM 84.0 °F 90.2 °F 73.0 °F 69% 29.95 in 10.0 mi SSW 16.1 mph - N/A   Clear
8:54 PM 84.0 °F 91.9 °F 75.0 °F 74% 29.95 in 10.0 mi SSW 18.4 mph 25.3 mph N/A   Clear
9:54 PM 82.9 °F 90.2 °F 75.0 °F 77% 29.96 in 10.0 mi SSW 16.1 mph 20.7 mph N/A   Clear
10:54 PM 82.9 °F 88.8 °F 73.0 °F 72% 29.96 in 10.0 mi SW 12.7 mph - N/A   Clear
11:54 PM 82.9 °F 89.4 °F 73.9 °F 74% 29.96 in 10.0 mi SW 12.7 mph - N/A   Clear